Track ONEWEB-0118 now! 10-day predictions ONEWEB-0118 is classified as:
1 47264U 20100G 21023.91667824 -.01392020 00000-0 -12405+0 0 9997 2 47264 87.4686 26.9166 0013701 132.0782 178.7871 14.99340618 1767